Little Pigeon at Sevierville [ USA-TNN ]

Edit Gauge

Current Conditions

Reading of "n/a" = frozen gauge or gauge error.
Reading Trend Type Updated
370 cfs -1 cfs/hr Flow -02h09m
1.88 ft -0.00 ft/hr Feet Stage -02h09m

Station Description

AW Gauge ID: 50462
Source: tva
Station: ls006
Enabled yes
Data is courtesy of TVA. These provisional data have not been reviewed or edited, and may be subject to significant change. Source Gauge's Page

Information

Feet Stage

Gauge History

Times listed in GMT 24h, ET and PT hours provided for convenience Graphs in GMT. Readings of "n/a" constitute a frozen gauge or gauge error.
Reading Updated (GMT) Eastern Pacific Comment
1.88 10/18/2017 03:58:56 Oct 17 11:58 pm Oct 17 8:58 pm
1.80 10/18/2017 00:00:00 Oct 17 08:00 pm Oct 17 5:00 pm
1.81 10/17/2017 22:58:08 Oct 17 06:58 pm Oct 17 3:58 pm
1.82 10/17/2017 21:58:24 Oct 17 05:58 pm Oct 17 2:58 pm
1.83 10/17/2017 20:58:40 Oct 17 04:58 pm Oct 17 1:58 pm
1.84 10/17/2017 19:58:56 Oct 17 03:58 pm Oct 17 12:58 pm
1.85 10/17/2017 18:59:12 Oct 17 02:59 pm Oct 17 11:59 am
1.86 10/17/2017 17:59:28 Oct 17 01:59 pm Oct 17 10:59 am
1.87 10/17/2017 16:59:44 Oct 17 12:59 pm Oct 17 9:59 am
1.90 10/17/2017 14:58:08 Oct 17 10:58 am Oct 17 7:58 am
1.92 10/17/2017 13:58:24 Oct 17 09:58 am Oct 17 6:58 am
1.94 10/17/2017 12:58:40 Oct 17 08:58 am Oct 17 5:58 am
1.95 10/17/2017 11:58:56 Oct 17 07:58 am Oct 17 4:58 am
1.98 10/17/2017 10:59:12 Oct 17 06:59 am Oct 17 3:59 am
2.00 10/17/2017 09:59:28 Oct 17 05:59 am Oct 17 2:59 am
2.02 10/17/2017 08:59:44 Oct 17 04:59 am Oct 17 1:59 am
2.05 10/17/2017 08:00:00 Oct 17 04:00 am Oct 17 1:00 am
2.07 10/17/2017 06:58:08 Oct 17 02:58 am Oct 16 11:58 pm
2.09 10/17/2017 05:58:24 Oct 17 01:58 am Oct 16 10:58 pm
2.11 10/17/2017 04:58:40 Oct 17 12:58 am Oct 16 9:58 pm
1.94 10/17/2017 03:58:56 Oct 16 11:58 pm Oct 16 8:58 pm
2.17 10/17/2017 02:59:12 Oct 16 10:59 pm Oct 16 7:59 pm
2.21 10/17/2017 01:59:28 Oct 16 09:59 pm Oct 16 6:59 pm
2.24 10/17/2017 00:59:44 Oct 16 08:59 pm Oct 16 5:59 pm
2.28 10/17/2017 00:00:00 Oct 16 08:00 pm Oct 16 5:00 pm
2.32 10/16/2017 22:58:08 Oct 16 06:58 pm Oct 16 3:58 pm
2.34 10/16/2017 21:58:24 Oct 16 05:58 pm Oct 16 2:58 pm
2.34 10/16/2017 20:58:40 Oct 16 04:58 pm Oct 16 1:58 pm
2.32 10/16/2017 19:58:56 Oct 16 03:58 pm Oct 16 12:58 pm
2.21 10/16/2017 18:59:12 Oct 16 02:59 pm Oct 16 11:59 am
2.13 10/16/2017 17:59:28 Oct 16 01:59 pm Oct 16 10:59 am
2.03 10/16/2017 16:59:44 Oct 16 12:59 pm Oct 16 9:59 am
1.89 10/16/2017 14:58:08 Oct 16 10:58 am Oct 16 7:58 am
1.83 10/16/2017 13:58:24 Oct 16 09:58 am Oct 16 6:58 am
1.79 10/16/2017 12:58:40 Oct 16 08:58 am Oct 16 5:58 am
1.76 10/16/2017 11:58:56 Oct 16 07:58 am Oct 16 4:58 am
1.72 10/16/2017 10:59:12 Oct 16 06:59 am Oct 16 3:59 am
1.69 10/16/2017 09:59:28 Oct 16 05:59 am Oct 16 2:59 am
1.72 10/16/2017 08:59:44 Oct 16 04:59 am Oct 16 1:59 am
1.71 10/16/2017 08:00:00 Oct 16 04:00 am Oct 16 1:00 am
1.64 10/16/2017 06:58:08 Oct 16 02:58 am Oct 15 11:58 pm
1.60 10/16/2017 05:58:24 Oct 16 01:58 am Oct 15 10:58 pm
1.58 10/16/2017 04:58:40 Oct 16 12:58 am Oct 15 9:58 pm
1.42 10/16/2017 03:58:56 Oct 15 11:58 pm Oct 15 8:58 pm
1.52 10/16/2017 02:59:12 Oct 15 10:59 pm Oct 15 7:59 pm
1.44 10/16/2017 01:59:28 Oct 15 09:59 pm Oct 15 6:59 pm
1.42 10/16/2017 00:59:44 Oct 15 08:59 pm Oct 15 5:59 pm
1.40 10/16/2017 00:00:00 Oct 15 08:00 pm Oct 15 5:00 pm
1.39 10/15/2017 22:58:08 Oct 15 06:58 pm Oct 15 3:58 pm
1.40 10/15/2017 20:58:40 Oct 15 04:58 pm Oct 15 1:58 pm
1.40 10/15/2017 19:58:56 Oct 15 03:58 pm Oct 15 12:58 pm
1.41 10/15/2017 18:59:12 Oct 15 02:59 pm Oct 15 11:59 am
1.41 10/15/2017 17:59:28 Oct 15 01:59 pm Oct 15 10:59 am
1.42 10/15/2017 16:59:44 Oct 15 12:59 pm Oct 15 9:59 am
1.43 10/15/2017 14:58:08 Oct 15 10:58 am Oct 15 7:58 am
1.43 10/15/2017 13:58:24 Oct 15 09:58 am Oct 15 6:58 am
1.43 10/15/2017 12:58:40 Oct 15 08:58 am Oct 15 5:58 am
1.43 10/15/2017 11:58:56 Oct 15 07:58 am Oct 15 4:58 am
1.44 10/15/2017 10:59:12 Oct 15 06:59 am Oct 15 3:59 am
1.44 10/15/2017 09:59:28 Oct 15 05:59 am Oct 15 2:59 am
1.44 10/15/2017 08:59:44 Oct 15 04:59 am Oct 15 1:59 am
1.44 10/15/2017 08:00:00 Oct 15 04:00 am Oct 15 1:00 am
1.44 10/15/2017 06:58:08 Oct 15 02:58 am Oct 14 11:58 pm
1.44 10/15/2017 05:58:24 Oct 15 01:58 am Oct 14 10:58 pm
1.45 10/15/2017 04:58:40 Oct 15 12:58 am Oct 14 9:58 pm
1.44 10/15/2017 03:58:56 Oct 14 11:58 pm Oct 14 8:58 pm
1.46 10/15/2017 02:59:12 Oct 14 10:59 pm Oct 14 7:59 pm
1.45 10/15/2017 01:59:28 Oct 14 09:59 pm Oct 14 6:59 pm
1.43 10/15/2017 00:59:44 Oct 14 08:59 pm Oct 14 5:59 pm
1.42 10/15/2017 00:00:00 Oct 14 08:00 pm Oct 14 5:00 pm
1.41 10/14/2017 22:58:08 Oct 14 06:58 pm Oct 14 3:58 pm
1.41 10/14/2017 21:58:24 Oct 14 05:58 pm Oct 14 2:58 pm
1.41 10/14/2017 20:58:40 Oct 14 04:58 pm Oct 14 1:58 pm
1.41 10/14/2017 19:58:56 Oct 14 03:58 pm Oct 14 12:58 pm
1.42 10/14/2017 18:59:12 Oct 14 02:59 pm Oct 14 11:59 am
1.42 10/14/2017 17:59:28 Oct 14 01:59 pm Oct 14 10:59 am
1.43 10/14/2017 16:59:44 Oct 14 12:59 pm Oct 14 9:59 am
1.46 10/14/2017 14:58:08 Oct 14 10:58 am Oct 14 7:58 am
1.48 10/14/2017 13:58:24 Oct 14 09:58 am Oct 14 6:58 am
1.48 10/14/2017 12:58:40 Oct 14 08:58 am Oct 14 5:58 am
1.48 10/14/2017 11:58:56 Oct 14 07:58 am Oct 14 4:58 am
1.48 10/14/2017 10:59:12 Oct 14 06:59 am Oct 14 3:59 am
1.48 10/14/2017 09:59:28 Oct 14 05:59 am Oct 14 2:59 am
1.49 10/14/2017 08:59:44 Oct 14 04:59 am Oct 14 1:59 am
1.49 10/14/2017 08:00:00 Oct 14 04:00 am Oct 14 1:00 am
1.49 10/14/2017 06:58:08 Oct 14 02:58 am Oct 13 11:58 pm
1.50 10/14/2017 05:58:24 Oct 14 01:58 am Oct 13 10:58 pm
1.50 10/14/2017 04:58:40 Oct 14 12:58 am Oct 13 9:58 pm
1.52 10/14/2017 03:58:56 Oct 13 11:58 pm Oct 13 8:58 pm
1.50 10/14/2017 02:59:12 Oct 13 10:59 pm Oct 13 7:59 pm
1.51 10/14/2017 01:59:28 Oct 13 09:59 pm Oct 13 6:59 pm
1.51 10/14/2017 00:59:44 Oct 13 08:59 pm Oct 13 5:59 pm
1.51 10/14/2017 00:00:00 Oct 13 08:00 pm Oct 13 5:00 pm
1.51 10/13/2017 22:58:08 Oct 13 06:58 pm Oct 13 3:58 pm
1.51 10/13/2017 21:58:24 Oct 13 05:58 pm Oct 13 2:58 pm
1.51 10/13/2017 20:58:40 Oct 13 04:58 pm Oct 13 1:58 pm
1.51 10/13/2017 19:58:56 Oct 13 03:58 pm Oct 13 12:58 pm
1.52 10/13/2017 18:59:12 Oct 13 02:59 pm Oct 13 11:59 am
1.52 10/13/2017 17:59:28 Oct 13 01:59 pm Oct 13 10:59 am
1.53 10/13/2017 16:59:44 Oct 13 12:59 pm Oct 13 9:59 am
1.51 10/13/2017 14:58:08 Oct 13 10:58 am Oct 13 7:58 am
1.52 10/13/2017 13:58:24 Oct 13 09:58 am Oct 13 6:58 am
1.52 10/13/2017 12:58:40 Oct 13 08:58 am Oct 13 5:58 am
1.53 10/13/2017 11:58:56 Oct 13 07:58 am Oct 13 4:58 am
1.53 10/13/2017 10:59:12 Oct 13 06:59 am Oct 13 3:59 am
1.53 10/13/2017 09:59:28 Oct 13 05:59 am Oct 13 2:59 am
1.54 10/13/2017 08:59:44 Oct 13 04:59 am Oct 13 1:59 am
1.54 10/13/2017 08:00:00 Oct 13 04:00 am Oct 13 1:00 am
1.55 10/13/2017 06:58:08 Oct 13 02:58 am Oct 12 11:58 pm
1.56 10/13/2017 05:58:24 Oct 13 01:58 am Oct 12 10:58 pm
1.57 10/13/2017 04:58:40 Oct 13 12:58 am Oct 12 9:58 pm
1.61 10/13/2017 03:58:56 Oct 12 11:58 pm Oct 12 8:58 pm
1.60 10/13/2017 02:59:12 Oct 12 10:59 pm Oct 12 7:59 pm
1.60 10/13/2017 01:59:28 Oct 12 09:59 pm Oct 12 6:59 pm
1.60 10/13/2017 00:59:44 Oct 12 08:59 pm Oct 12 5:59 pm
1.61 10/13/2017 00:00:00 Oct 12 08:00 pm Oct 12 5:00 pm
1.60 10/12/2017 22:58:08 Oct 12 06:58 pm Oct 12 3:58 pm
1.60 10/12/2017 21:58:24 Oct 12 05:58 pm Oct 12 2:58 pm
1.58 10/12/2017 20:58:40 Oct 12 04:58 pm Oct 12 1:58 pm
1.59 10/12/2017 19:58:56 Oct 12 03:58 pm Oct 12 12:58 pm
1.59 10/12/2017 18:59:12 Oct 12 02:59 pm Oct 12 11:59 am
1.60 10/12/2017 17:59:28 Oct 12 01:59 pm Oct 12 10:59 am
1.60 10/12/2017 16:59:44 Oct 12 12:59 pm Oct 12 9:59 am
1.64 10/12/2017 14:58:08 Oct 12 10:58 am Oct 12 7:58 am
1.65 10/12/2017 13:58:24 Oct 12 09:58 am Oct 12 6:58 am
1.67 10/12/2017 12:58:40 Oct 12 08:58 am Oct 12 5:58 am
1.67 10/12/2017 11:58:56 Oct 12 07:58 am Oct 12 4:58 am
1.67 10/12/2017 10:59:12 Oct 12 06:59 am Oct 12 3:59 am
1.68 10/12/2017 09:59:28 Oct 12 05:59 am Oct 12 2:59 am
1.68 10/12/2017 08:59:44 Oct 12 04:59 am Oct 12 1:59 am
1.69 10/12/2017 08:00:00 Oct 12 04:00 am Oct 12 1:00 am
1.68 10/12/2017 06:58:08 Oct 12 02:58 am Oct 11 11:58 pm
1.68 10/12/2017 05:58:24 Oct 12 01:58 am Oct 11 10:58 pm
1.69 10/12/2017 04:58:40 Oct 12 12:58 am Oct 11 9:58 pm
1.82 10/12/2017 03:58:56 Oct 11 11:58 pm Oct 11 8:58 pm
1.71 10/12/2017 02:59:12 Oct 11 10:59 pm Oct 11 7:59 pm
1.71 10/12/2017 01:59:28 Oct 11 09:59 pm Oct 11 6:59 pm
1.72 10/12/2017 00:59:44 Oct 11 08:59 pm Oct 11 5:59 pm
1.73 10/12/2017 00:00:00 Oct 11 08:00 pm Oct 11 5:00 pm
1.74 10/11/2017 22:58:08 Oct 11 06:58 pm Oct 11 3:58 pm
1.74 10/11/2017 21:58:24 Oct 11 05:58 pm Oct 11 2:58 pm
1.75 10/11/2017 20:58:40 Oct 11 04:58 pm Oct 11 1:58 pm
1.77 10/11/2017 19:58:56 Oct 11 03:58 pm Oct 11 12:58 pm
1.79 10/11/2017 18:59:12 Oct 11 02:59 pm Oct 11 11:59 am
1.79 10/11/2017 17:59:28 Oct 11 01:59 pm Oct 11 10:59 am
1.80 10/11/2017 16:59:44 Oct 11 12:59 pm Oct 11 9:59 am
1.83 10/11/2017 14:58:08 Oct 11 10:58 am Oct 11 7:58 am
1.84 10/11/2017 13:58:24 Oct 11 09:58 am Oct 11 6:58 am
1.86 10/11/2017 12:58:40 Oct 11 08:58 am Oct 11 5:58 am
1.87 10/11/2017 11:58:56 Oct 11 07:58 am Oct 11 4:58 am
1.88 10/11/2017 10:59:12 Oct 11 06:59 am Oct 11 3:59 am
1.89 10/11/2017 09:59:28 Oct 11 05:59 am Oct 11 2:59 am
1.90 10/11/2017 08:59:44 Oct 11 04:59 am Oct 11 1:59 am
1.91 10/11/2017 08:00:00 Oct 11 04:00 am Oct 11 1:00 am
1.92 10/11/2017 06:58:08 Oct 11 02:58 am Oct 10 11:58 pm
1.93 10/11/2017 05:58:24 Oct 11 01:58 am Oct 10 10:58 pm
1.95 10/11/2017 04:58:40 Oct 11 12:58 am Oct 10 9:58 pm
2.02 10/11/2017 03:58:56 Oct 10 11:58 pm Oct 10 8:58 pm
1.96 10/11/2017 02:59:12 Oct 10 10:59 pm Oct 10 7:59 pm
1.97 10/11/2017 01:59:28 Oct 10 09:59 pm Oct 10 6:59 pm
1.97 10/11/2017 00:59:44 Oct 10 08:59 pm Oct 10 5:59 pm
1.97 10/11/2017 00:00:00 Oct 10 08:00 pm Oct 10 5:00 pm
1.98 10/10/2017 22:58:08 Oct 10 06:58 pm Oct 10 3:58 pm
2.01 10/10/2017 21:58:24 Oct 10 05:58 pm Oct 10 2:58 pm
2.06 10/10/2017 20:58:40 Oct 10 04:58 pm Oct 10 1:58 pm
2.00 10/10/2017 19:58:56 Oct 10 03:58 pm Oct 10 12:58 pm
1.97 10/10/2017 18:59:12 Oct 10 02:59 pm Oct 10 11:59 am
1.98 10/10/2017 17:59:28 Oct 10 01:59 pm Oct 10 10:59 am
1.99 10/10/2017 16:59:44 Oct 10 12:59 pm Oct 10 9:59 am
2.04 10/10/2017 14:58:08 Oct 10 10:58 am Oct 10 7:58 am
2.07 10/10/2017 13:58:24 Oct 10 09:58 am Oct 10 6:58 am
2.10 10/10/2017 12:58:40 Oct 10 08:58 am Oct 10 5:58 am
2.13 10/10/2017 11:58:56 Oct 10 07:58 am Oct 10 4:58 am
2.16 10/10/2017 10:59:12 Oct 10 06:59 am Oct 10 3:59 am
2.20 10/10/2017 09:59:28 Oct 10 05:59 am Oct 10 2:59 am
2.24 10/10/2017 08:59:44 Oct 10 04:59 am Oct 10 1:59 am
2.27 10/10/2017 08:00:00 Oct 10 04:00 am Oct 10 1:00 am
2.32 10/10/2017 06:58:08 Oct 10 02:58 am Oct 9 11:58 pm
2.36 10/10/2017 05:58:24 Oct 10 01:58 am Oct 9 10:58 pm
2.40 10/10/2017 04:58:40 Oct 10 12:58 am Oct 9 9:58 pm
3.61 10/10/2017 03:58:56 Oct 9 11:58 pm Oct 9 8:58 pm
2.50 10/10/2017 02:59:12 Oct 9 10:59 pm Oct 9 7:59 pm
2.56 10/10/2017 01:59:28 Oct 9 09:59 pm Oct 9 6:59 pm
2.62 10/10/2017 00:59:44 Oct 9 08:59 pm Oct 9 5:59 pm
2.69 10/10/2017 00:00:00 Oct 9 08:00 pm Oct 9 5:00 pm
2.77 10/09/2017 22:58:08 Oct 9 06:58 pm Oct 9 3:58 pm
2.87 10/09/2017 21:58:24 Oct 9 05:58 pm Oct 9 2:58 pm
2.95 10/09/2017 20:58:40 Oct 9 04:58 pm Oct 9 1:58 pm
3.06 10/09/2017 19:58:56 Oct 9 03:58 pm Oct 9 12:58 pm
3.19 10/09/2017 18:59:12 Oct 9 02:59 pm Oct 9 11:59 am
3.31 10/09/2017 17:59:28 Oct 9 01:59 pm Oct 9 10:59 am
3.47 10/09/2017 16:59:44 Oct 9 12:59 pm Oct 9 9:59 am
3.79 10/09/2017 14:58:08 Oct 9 10:58 am Oct 9 7:58 am
4.18 10/09/2017 12:58:40 Oct 9 08:58 am Oct 9 5:58 am
4.45 10/09/2017 11:58:56 Oct 9 07:58 am Oct 9 4:58 am
4.68 10/09/2017 10:59:12 Oct 9 06:59 am Oct 9 3:59 am
4.89 10/09/2017 09:59:28 Oct 9 05:59 am Oct 9 2:59 am
4.82 10/09/2017 08:59:44 Oct 9 04:59 am Oct 9 1:59 am
4.45 10/09/2017 08:00:00 Oct 9 04:00 am Oct 9 1:00 am
3.87 10/09/2017 06:58:08 Oct 9 02:58 am Oct 8 11:58 pm
3.77 10/09/2017 05:58:24 Oct 9 01:58 am Oct 8 10:58 pm
3.93 10/09/2017 04:58:40 Oct 9 12:58 am Oct 8 9:58 pm
1.17 10/09/2017 03:58:56 Oct 8 11:58 pm Oct 8 8:58 pm
1.34 10/09/2017 02:59:12 Oct 8 10:59 pm Oct 8 7:59 pm
1.34 10/09/2017 01:59:28 Oct 8 09:59 pm Oct 8 6:59 pm
1.32 10/09/2017 00:59:44 Oct 8 08:59 pm Oct 8 5:59 pm
1.28 10/09/2017 00:00:00 Oct 8 08:00 pm Oct 8 5:00 pm
1.30 10/08/2017 22:58:08 Oct 8 06:58 pm Oct 8 3:58 pm
1.34 10/08/2017 21:58:24 Oct 8 05:58 pm Oct 8 2:58 pm
1.34 10/08/2017 20:58:40 Oct 8 04:58 pm Oct 8 1:58 pm
1.24 10/08/2017 19:58:56 Oct 8 03:58 pm Oct 8 12:58 pm
1.21 10/08/2017 18:59:12 Oct 8 02:59 pm Oct 8 11:59 am
1.21 10/08/2017 17:59:28 Oct 8 01:59 pm Oct 8 10:59 am
1.22 10/08/2017 16:59:44 Oct 8 12:59 pm Oct 8 9:59 am
1.15 10/08/2017 14:58:08 Oct 8 10:58 am Oct 8 7:58 am
1.15 10/08/2017 13:58:24 Oct 8 09:58 am Oct 8 6:58 am
1.15 10/08/2017 12:58:40 Oct 8 08:58 am Oct 8 5:58 am
1.15 10/08/2017 11:58:56 Oct 8 07:58 am Oct 8 4:58 am
1.15 10/08/2017 10:59:12 Oct 8 06:59 am Oct 8 3:59 am
1.15 10/08/2017 09:59:28 Oct 8 05:59 am Oct 8 2:59 am
1.14 10/08/2017 08:59:44 Oct 8 04:59 am Oct 8 1:59 am
1.14 10/08/2017 08:00:00 Oct 8 04:00 am Oct 8 1:00 am
1.14 10/08/2017 06:58:08 Oct 8 02:58 am Oct 7 11:58 pm
1.14 10/08/2017 05:58:24 Oct 8 01:58 am Oct 7 10:58 pm
1.12 10/08/2017 04:58:40 Oct 8 12:58 am Oct 7 9:58 pm
1.11 10/08/2017 03:58:56 Oct 7 11:58 pm Oct 7 8:58 pm
1.09 10/08/2017 02:59:12 Oct 7 10:59 pm Oct 7 7:59 pm
1.09 10/08/2017 01:59:28 Oct 7 09:59 pm Oct 7 6:59 pm
1.09 10/08/2017 00:59:44 Oct 7 08:59 pm Oct 7 5:59 pm
1.09 10/08/2017 00:00:00 Oct 7 08:00 pm Oct 7 5:00 pm
1.09 10/07/2017 22:58:08 Oct 7 06:58 pm Oct 7 3:58 pm
1.09 10/07/2017 21:58:24 Oct 7 05:58 pm Oct 7 2:58 pm
1.09 10/07/2017 20:58:40 Oct 7 04:58 pm Oct 7 1:58 pm
1.09 10/07/2017 19:58:56 Oct 7 03:58 pm Oct 7 12:58 pm
1.09 10/07/2017 18:59:12 Oct 7 02:59 pm Oct 7 11:59 am
1.09 10/07/2017 17:59:28 Oct 7 01:59 pm Oct 7 10:59 am
1.10 10/07/2017 16:59:44 Oct 7 12:59 pm Oct 7 9:59 am
1.13 10/07/2017 14:58:08 Oct 7 10:58 am Oct 7 7:58 am
1.14 10/07/2017 13:58:24 Oct 7 09:58 am Oct 7 6:58 am
1.14 10/07/2017 12:58:40 Oct 7 08:58 am Oct 7 5:58 am
1.14 10/07/2017 11:58:56 Oct 7 07:58 am Oct 7 4:58 am
1.14 10/07/2017 10:59:12 Oct 7 06:59 am Oct 7 3:59 am
1.14 10/07/2017 09:59:28 Oct 7 05:59 am Oct 7 2:59 am
1.14 10/07/2017 08:59:44 Oct 7 04:59 am Oct 7 1:59 am
1.14 10/07/2017 08:00:00 Oct 7 04:00 am Oct 7 1:00 am
1.14 10/07/2017 06:58:08 Oct 7 02:58 am Oct 6 11:58 pm
1.14 10/07/2017 05:58:24 Oct 7 01:58 am Oct 6 10:58 pm
1.14 10/07/2017 04:58:40 Oct 7 12:58 am Oct 6 9:58 pm
1.08 10/07/2017 03:58:56 Oct 6 11:58 pm Oct 6 8:58 pm
1.15 10/07/2017 02:59:12 Oct 6 10:59 pm Oct 6 7:59 pm
1.15 10/07/2017 01:59:28 Oct 6 09:59 pm Oct 6 6:59 pm
1.16 10/07/2017 00:59:44 Oct 6 08:59 pm Oct 6 5:59 pm
1.17 10/07/2017 00:00:00 Oct 6 08:00 pm Oct 6 5:00 pm
1.16 10/06/2017 22:58:08 Oct 6 06:58 pm Oct 6 3:58 pm
1.11 10/06/2017 21:58:24 Oct 6 05:58 pm Oct 6 2:58 pm
1.08 10/06/2017 20:58:40 Oct 6 04:58 pm Oct 6 1:58 pm
1.08 10/06/2017 19:58:56 Oct 6 03:58 pm Oct 6 12:58 pm
1.08 10/06/2017 18:59:12 Oct 6 02:59 pm Oct 6 11:59 am
1.08 10/06/2017 17:59:28 Oct 6 01:59 pm Oct 6 10:59 am
1.08 10/06/2017 16:59:44 Oct 6 12:59 pm Oct 6 9:59 am
1.08 10/06/2017 14:58:08 Oct 6 10:58 am Oct 6 7:58 am
1.08 10/06/2017 13:58:24 Oct 6 09:58 am Oct 6 6:58 am
1.08 10/06/2017 12:58:40 Oct 6 08:58 am Oct 6 5:58 am
1.08 10/06/2017 11:58:56 Oct 6 07:58 am Oct 6 4:58 am
1.09 10/06/2017 10:59:12 Oct 6 06:59 am Oct 6 3:59 am
1.10 10/06/2017 09:59:28 Oct 6 05:59 am Oct 6 2:59 am
1.12 10/06/2017 08:59:44 Oct 6 04:59 am Oct 6 1:59 am
1.13 10/06/2017 08:00:00 Oct 6 04:00 am Oct 6 1:00 am
1.14 10/06/2017 06:58:08 Oct 6 02:58 am Oct 5 11:58 pm
1.14 10/06/2017 05:58:24 Oct 6 01:58 am Oct 5 10:58 pm
1.14 10/06/2017 04:58:40 Oct 6 12:58 am Oct 5 9:58 pm
1.08 10/06/2017 03:58:56 Oct 5 11:58 pm Oct 5 8:58 pm
1.14 10/06/2017 02:59:12 Oct 5 10:59 pm Oct 5 7:59 pm
1.14 10/06/2017 01:59:28 Oct 5 09:59 pm Oct 5 6:59 pm
1.14 10/06/2017 00:59:44 Oct 5 08:59 pm Oct 5 5:59 pm
1.14 10/06/2017 00:00:00 Oct 5 08:00 pm Oct 5 5:00 pm
1.14 10/05/2017 22:58:08 Oct 5 06:58 pm Oct 5 3:58 pm
1.13 10/05/2017 21:58:24 Oct 5 05:58 pm Oct 5 2:58 pm
1.12 10/05/2017 20:58:40 Oct 5 04:58 pm Oct 5 1:58 pm
1.12 10/05/2017 19:58:56 Oct 5 03:58 pm Oct 5 12:58 pm
1.12 10/05/2017 18:59:12 Oct 5 02:59 pm Oct 5 11:59 am
1.12 10/05/2017 17:59:28 Oct 5 01:59 pm Oct 5 10:59 am
1.10 10/05/2017 16:59:44 Oct 5 12:59 pm Oct 5 9:59 am
1.07 10/05/2017 14:58:08 Oct 5 10:58 am Oct 5 7:58 am
1.07 10/05/2017 13:58:24 Oct 5 09:58 am Oct 5 6:58 am
1.06 10/05/2017 12:58:40 Oct 5 08:58 am Oct 5 5:58 am
1.07 10/05/2017 11:58:56 Oct 5 07:58 am Oct 5 4:58 am
1.07 10/05/2017 10:59:12 Oct 5 06:59 am Oct 5 3:59 am
1.07 10/05/2017 09:59:28 Oct 5 05:59 am Oct 5 2:59 am
1.07 10/05/2017 08:59:44 Oct 5 04:59 am Oct 5 1:59 am
1.07 10/05/2017 08:00:00 Oct 5 04:00 am Oct 5 1:00 am
1.07 10/05/2017 06:58:08 Oct 5 02:58 am Oct 4 11:58 pm
1.07 10/05/2017 05:58:24 Oct 5 01:58 am Oct 4 10:58 pm
1.07 10/05/2017 04:58:40 Oct 5 12:58 am Oct 4 9:58 pm
1.16 10/05/2017 03:58:56 Oct 4 11:58 pm Oct 4 8:58 pm
1.11 10/05/2017 02:59:12 Oct 4 10:59 pm Oct 4 7:59 pm
1.12 10/05/2017 01:59:28 Oct 4 09:59 pm Oct 4 6:59 pm
1.13 10/05/2017 00:59:44 Oct 4 08:59 pm Oct 4 5:59 pm
1.13 10/05/2017 00:00:00 Oct 4 08:00 pm Oct 4 5:00 pm
1.13 10/04/2017 22:58:08 Oct 4 06:58 pm Oct 4 3:58 pm

Flow

Gauge History

Times listed in GMT 24h, ET and PT hours provided for convenience Graphs in GMT. Readings of "n/a" constitute a frozen gauge or gauge error.
Reading Updated (GMT) Eastern Pacific Comment
370.00 10/18/2017 03:58:56 Oct 17 11:58 pm Oct 17 8:58 pm
326.00 10/18/2017 00:00:00 Oct 17 08:00 pm Oct 17 5:00 pm
331.00 10/17/2017 22:58:08 Oct 17 06:58 pm Oct 17 3:58 pm
337.00 10/17/2017 21:58:24 Oct 17 05:58 pm Oct 17 2:58 pm
342.00 10/17/2017 20:58:40 Oct 17 04:58 pm Oct 17 1:58 pm
348.00 10/17/2017 19:58:56 Oct 17 03:58 pm Oct 17 12:58 pm
353.00 10/17/2017 18:59:12 Oct 17 02:59 pm Oct 17 11:59 am
359.00 10/17/2017 17:59:28 Oct 17 01:59 pm Oct 17 10:59 am
365.00 10/17/2017 16:59:44 Oct 17 12:59 pm Oct 17 9:59 am
382.00 10/17/2017 14:58:08 Oct 17 10:58 am Oct 17 7:58 am
393.00 10/17/2017 13:58:24 Oct 17 09:58 am Oct 17 6:58 am
404.00 10/17/2017 12:58:40 Oct 17 08:58 am Oct 17 5:58 am
409.00 10/17/2017 11:58:56 Oct 17 07:58 am Oct 17 4:58 am
426.00 10/17/2017 10:59:12 Oct 17 06:59 am Oct 17 3:59 am
438.00 10/17/2017 09:59:28 Oct 17 05:59 am Oct 17 2:59 am
451.00 10/17/2017 08:59:44 Oct 17 04:59 am Oct 17 1:59 am
472.00 10/17/2017 08:00:00 Oct 17 04:00 am Oct 17 1:00 am
486.00 10/17/2017 06:58:08 Oct 17 02:58 am Oct 16 11:58 pm
500.00 10/17/2017 05:58:24 Oct 17 01:58 am Oct 16 10:58 pm
513.00 10/17/2017 04:58:40 Oct 17 12:58 am Oct 16 9:58 pm
404.00 10/17/2017 03:58:56 Oct 16 11:58 pm Oct 16 8:58 pm
549.00 10/17/2017 02:59:12 Oct 16 10:59 pm Oct 16 7:59 pm
573.00 10/17/2017 01:59:28 Oct 16 09:59 pm Oct 16 6:59 pm
593.00 10/17/2017 00:59:44 Oct 16 08:59 pm Oct 16 5:59 pm
619.00 10/17/2017 00:00:00 Oct 16 08:00 pm Oct 16 5:00 pm
645.00 10/16/2017 22:58:08 Oct 16 06:58 pm Oct 16 3:58 pm
659.00 10/16/2017 21:58:24 Oct 16 05:58 pm Oct 16 2:58 pm
659.00 10/16/2017 20:58:40 Oct 16 04:58 pm Oct 16 1:58 pm
645.00 10/16/2017 19:58:56 Oct 16 03:58 pm Oct 16 12:58 pm
573.00 10/16/2017 18:59:12 Oct 16 02:59 pm Oct 16 11:59 am
525.00 10/16/2017 17:59:28 Oct 16 01:59 pm Oct 16 10:59 am
458.00 10/16/2017 16:59:44 Oct 16 12:59 pm Oct 16 9:59 am
376.00 10/16/2017 14:58:08 Oct 16 10:58 am Oct 16 7:58 am
342.00 10/16/2017 13:58:24 Oct 16 09:58 am Oct 16 6:58 am
321.00 10/16/2017 12:58:40 Oct 16 08:58 am Oct 16 5:58 am
305.00 10/16/2017 11:58:56 Oct 16 07:58 am Oct 16 4:58 am
286.00 10/16/2017 10:59:12 Oct 16 06:59 am Oct 16 3:59 am
271.00 10/16/2017 09:59:28 Oct 16 05:59 am Oct 16 2:59 am
286.00 10/16/2017 08:59:44 Oct 16 04:59 am Oct 16 1:59 am
281.00 10/16/2017 08:00:00 Oct 16 04:00 am Oct 16 1:00 am
248.00 10/16/2017 06:58:08 Oct 16 02:58 am Oct 15 11:58 pm
231.00 10/16/2017 05:58:24 Oct 16 01:58 am Oct 15 10:58 pm
223.00 10/16/2017 04:58:40 Oct 16 12:58 am Oct 15 9:58 pm
163.00 10/16/2017 03:58:56 Oct 15 11:58 pm Oct 15 8:58 pm
199.00 10/16/2017 02:59:12 Oct 15 10:59 pm Oct 15 7:59 pm
169.00 10/16/2017 01:59:28 Oct 15 09:59 pm Oct 15 6:59 pm
163.00 10/16/2017 00:59:44 Oct 15 08:59 pm Oct 15 5:59 pm
156.00 10/16/2017 00:00:00 Oct 15 08:00 pm Oct 15 5:00 pm
153.00 10/15/2017 22:58:08 Oct 15 06:58 pm Oct 15 3:58 pm
156.00 10/15/2017 20:58:40 Oct 15 04:58 pm Oct 15 1:58 pm
156.00 10/15/2017 19:58:56 Oct 15 03:58 pm Oct 15 12:58 pm
159.00 10/15/2017 18:59:12 Oct 15 02:59 pm Oct 15 11:59 am
159.00 10/15/2017 17:59:28 Oct 15 01:59 pm Oct 15 10:59 am
163.00 10/15/2017 16:59:44 Oct 15 12:59 pm Oct 15 9:59 am
166.00 10/15/2017 14:58:08 Oct 15 10:58 am Oct 15 7:58 am
166.00 10/15/2017 13:58:24 Oct 15 09:58 am Oct 15 6:58 am
166.00 10/15/2017 12:58:40 Oct 15 08:58 am Oct 15 5:58 am
166.00 10/15/2017 11:58:56 Oct 15 07:58 am Oct 15 4:58 am
169.00 10/15/2017 10:59:12 Oct 15 06:59 am Oct 15 3:59 am
169.00 10/15/2017 09:59:28 Oct 15 05:59 am Oct 15 2:59 am
169.00 10/15/2017 08:59:44 Oct 15 04:59 am Oct 15 1:59 am
169.00 10/15/2017 08:00:00 Oct 15 04:00 am Oct 15 1:00 am
169.00 10/15/2017 06:58:08 Oct 15 02:58 am Oct 14 11:58 pm
169.00 10/15/2017 05:58:24 Oct 15 01:58 am Oct 14 10:58 pm
173.00 10/15/2017 04:58:40 Oct 15 12:58 am Oct 14 9:58 pm
169.00 10/15/2017 03:58:56 Oct 14 11:58 pm Oct 14 8:58 pm
176.00 10/15/2017 02:59:12 Oct 14 10:59 pm Oct 14 7:59 pm
173.00 10/15/2017 01:59:28 Oct 14 09:59 pm Oct 14 6:59 pm
166.00 10/15/2017 00:59:44 Oct 14 08:59 pm Oct 14 5:59 pm
163.00 10/15/2017 00:00:00 Oct 14 08:00 pm Oct 14 5:00 pm
159.00 10/14/2017 22:58:08 Oct 14 06:58 pm Oct 14 3:58 pm
159.00 10/14/2017 21:58:24 Oct 14 05:58 pm Oct 14 2:58 pm
159.00 10/14/2017 20:58:40 Oct 14 04:58 pm Oct 14 1:58 pm
159.00 10/14/2017 19:58:56 Oct 14 03:58 pm Oct 14 12:58 pm
163.00 10/14/2017 18:59:12 Oct 14 02:59 pm Oct 14 11:59 am
163.00 10/14/2017 17:59:28 Oct 14 01:59 pm Oct 14 10:59 am
166.00 10/14/2017 16:59:44 Oct 14 12:59 pm Oct 14 9:59 am
176.00 10/14/2017 14:58:08 Oct 14 10:58 am Oct 14 7:58 am
184.00 10/14/2017 13:58:24 Oct 14 09:58 am Oct 14 6:58 am
184.00 10/14/2017 12:58:40 Oct 14 08:58 am Oct 14 5:58 am
184.00 10/14/2017 11:58:56 Oct 14 07:58 am Oct 14 4:58 am
184.00 10/14/2017 10:59:12 Oct 14 06:59 am Oct 14 3:59 am
184.00 10/14/2017 09:59:28 Oct 14 05:59 am Oct 14 2:59 am
187.00 10/14/2017 08:59:44 Oct 14 04:59 am Oct 14 1:59 am
187.00 10/14/2017 08:00:00 Oct 14 04:00 am Oct 14 1:00 am
187.00 10/14/2017 06:58:08 Oct 14 02:58 am Oct 13 11:58 pm
191.00 10/14/2017 05:58:24 Oct 14 01:58 am Oct 13 10:58 pm
191.00 10/14/2017 04:58:40 Oct 14 12:58 am Oct 13 9:58 pm
199.00 10/14/2017 03:58:56 Oct 13 11:58 pm Oct 13 8:58 pm
191.00 10/14/2017 02:59:12 Oct 13 10:59 pm Oct 13 7:59 pm
195.00 10/14/2017 01:59:28 Oct 13 09:59 pm Oct 13 6:59 pm
195.00 10/14/2017 00:59:44 Oct 13 08:59 pm Oct 13 5:59 pm
195.00 10/14/2017 00:00:00 Oct 13 08:00 pm Oct 13 5:00 pm
195.00 10/13/2017 22:58:08 Oct 13 06:58 pm Oct 13 3:58 pm
195.00 10/13/2017 21:58:24 Oct 13 05:58 pm Oct 13 2:58 pm
195.00 10/13/2017 20:58:40 Oct 13 04:58 pm Oct 13 1:58 pm
195.00 10/13/2017 19:58:56 Oct 13 03:58 pm Oct 13 12:58 pm
199.00 10/13/2017 18:59:12 Oct 13 02:59 pm Oct 13 11:59 am
199.00 10/13/2017 17:59:28 Oct 13 01:59 pm Oct 13 10:59 am
202.00 10/13/2017 16:59:44 Oct 13 12:59 pm Oct 13 9:59 am
195.00 10/13/2017 14:58:08 Oct 13 10:58 am Oct 13 7:58 am
199.00 10/13/2017 13:58:24 Oct 13 09:58 am Oct 13 6:58 am
199.00 10/13/2017 12:58:40 Oct 13 08:58 am Oct 13 5:58 am
202.00 10/13/2017 11:58:56 Oct 13 07:58 am Oct 13 4:58 am
202.00 10/13/2017 10:59:12 Oct 13 06:59 am Oct 13 3:59 am
202.00 10/13/2017 09:59:28 Oct 13 05:59 am Oct 13 2:59 am
206.00 10/13/2017 08:59:44 Oct 13 04:59 am Oct 13 1:59 am
206.00 10/13/2017 08:00:00 Oct 13 04:00 am Oct 13 1:00 am
210.00 10/13/2017 06:58:08 Oct 13 02:58 am Oct 12 11:58 pm
214.00 10/13/2017 05:58:24 Oct 13 01:58 am Oct 12 10:58 pm
218.00 10/13/2017 04:58:40 Oct 13 12:58 am Oct 12 9:58 pm
235.00 10/13/2017 03:58:56 Oct 12 11:58 pm Oct 12 8:58 pm
231.00 10/13/2017 02:59:12 Oct 12 10:59 pm Oct 12 7:59 pm
231.00 10/13/2017 01:59:28 Oct 12 09:59 pm Oct 12 6:59 pm
231.00 10/13/2017 00:59:44 Oct 12 08:59 pm Oct 12 5:59 pm
235.00 10/13/2017 00:00:00 Oct 12 08:00 pm Oct 12 5:00 pm
231.00 10/12/2017 22:58:08 Oct 12 06:58 pm Oct 12 3:58 pm
231.00 10/12/2017 21:58:24 Oct 12 05:58 pm Oct 12 2:58 pm
223.00 10/12/2017 20:58:40 Oct 12 04:58 pm Oct 12 1:58 pm
227.00 10/12/2017 19:58:56 Oct 12 03:58 pm Oct 12 12:58 pm
227.00 10/12/2017 18:59:12 Oct 12 02:59 pm Oct 12 11:59 am
231.00 10/12/2017 17:59:28 Oct 12 01:59 pm Oct 12 10:59 am
231.00 10/12/2017 16:59:44 Oct 12 12:59 pm Oct 12 9:59 am
248.00 10/12/2017 14:58:08 Oct 12 10:58 am Oct 12 7:58 am
253.00 10/12/2017 13:58:24 Oct 12 09:58 am Oct 12 6:58 am
262.00 10/12/2017 12:58:40 Oct 12 08:58 am Oct 12 5:58 am
262.00 10/12/2017 11:58:56 Oct 12 07:58 am Oct 12 4:58 am
262.00 10/12/2017 10:59:12 Oct 12 06:59 am Oct 12 3:59 am
267.00 10/12/2017 09:59:28 Oct 12 05:59 am Oct 12 2:59 am
267.00 10/12/2017 08:59:44 Oct 12 04:59 am Oct 12 1:59 am
271.00 10/12/2017 08:00:00 Oct 12 04:00 am Oct 12 1:00 am
267.00 10/12/2017 06:58:08 Oct 12 02:58 am Oct 11 11:58 pm
267.00 10/12/2017 05:58:24 Oct 12 01:58 am Oct 11 10:58 pm
271.00 10/12/2017 04:58:40 Oct 12 12:58 am Oct 11 9:58 pm
337.00 10/12/2017 03:58:56 Oct 11 11:58 pm Oct 11 8:58 pm
281.00 10/12/2017 02:59:12 Oct 11 10:59 pm Oct 11 7:59 pm
281.00 10/12/2017 01:59:28 Oct 11 09:59 pm Oct 11 6:59 pm
286.00 10/12/2017 00:59:44 Oct 11 08:59 pm Oct 11 5:59 pm
290.00 10/12/2017 00:00:00 Oct 11 08:00 pm Oct 11 5:00 pm
295.00 10/11/2017 22:58:08 Oct 11 06:58 pm Oct 11 3:58 pm
295.00 10/11/2017 21:58:24 Oct 11 05:58 pm Oct 11 2:58 pm
300.00 10/11/2017 20:58:40 Oct 11 04:58 pm Oct 11 1:58 pm
310.00 10/11/2017 19:58:56 Oct 11 03:58 pm Oct 11 12:58 pm
321.00 10/11/2017 18:59:12 Oct 11 02:59 pm Oct 11 11:59 am
321.00 10/11/2017 17:59:28 Oct 11 01:59 pm Oct 11 10:59 am
326.00 10/11/2017 16:59:44 Oct 11 12:59 pm Oct 11 9:59 am
342.00 10/11/2017 14:58:08 Oct 11 10:58 am Oct 11 7:58 am
348.00 10/11/2017 13:58:24 Oct 11 09:58 am Oct 11 6:58 am
359.00 10/11/2017 12:58:40 Oct 11 08:58 am Oct 11 5:58 am
365.00 10/11/2017 11:58:56 Oct 11 07:58 am Oct 11 4:58 am
370.00 10/11/2017 10:59:12 Oct 11 06:59 am Oct 11 3:59 am
376.00 10/11/2017 09:59:28 Oct 11 05:59 am Oct 11 2:59 am
382.00 10/11/2017 08:59:44 Oct 11 04:59 am Oct 11 1:59 am
387.00 10/11/2017 08:00:00 Oct 11 04:00 am Oct 11 1:00 am
393.00 10/11/2017 06:58:08 Oct 11 02:58 am Oct 10 11:58 pm
398.00 10/11/2017 05:58:24 Oct 11 01:58 am Oct 10 10:58 pm
409.00 10/11/2017 04:58:40 Oct 11 12:58 am Oct 10 9:58 pm
451.00 10/11/2017 03:58:56 Oct 10 11:58 pm Oct 10 8:58 pm
415.00 10/11/2017 02:59:12 Oct 10 10:59 pm Oct 10 7:59 pm
421.00 10/11/2017 01:59:28 Oct 10 09:59 pm Oct 10 6:59 pm
421.00 10/11/2017 00:59:44 Oct 10 08:59 pm Oct 10 5:59 pm
421.00 10/11/2017 00:00:00 Oct 10 08:00 pm Oct 10 5:00 pm
426.00 10/10/2017 22:58:08 Oct 10 06:58 pm Oct 10 3:58 pm
445.00 10/10/2017 21:58:24 Oct 10 05:58 pm Oct 10 2:58 pm
479.00 10/10/2017 20:58:40 Oct 10 04:58 pm Oct 10 1:58 pm
438.00 10/10/2017 19:58:56 Oct 10 03:58 pm Oct 10 12:58 pm
421.00 10/10/2017 18:59:12 Oct 10 02:59 pm Oct 10 11:59 am
426.00 10/10/2017 17:59:28 Oct 10 01:59 pm Oct 10 10:59 am
432.00 10/10/2017 16:59:44 Oct 10 12:59 pm Oct 10 9:59 am
465.00 10/10/2017 14:58:08 Oct 10 10:58 am Oct 10 7:58 am
486.00 10/10/2017 13:58:24 Oct 10 09:58 am Oct 10 6:58 am
507.00 10/10/2017 12:58:40 Oct 10 08:58 am Oct 10 5:58 am
525.00 10/10/2017 11:58:56 Oct 10 07:58 am Oct 10 4:58 am
543.00 10/10/2017 10:59:12 Oct 10 06:59 am Oct 10 3:59 am
567.00 10/10/2017 09:59:28 Oct 10 05:59 am Oct 10 2:59 am
593.00 10/10/2017 08:59:44 Oct 10 04:59 am Oct 10 1:59 am
612.00 10/10/2017 08:00:00 Oct 10 04:00 am Oct 10 1:00 am
645.00 10/10/2017 06:58:08 Oct 10 02:58 am Oct 9 11:58 pm
673.00 10/10/2017 05:58:24 Oct 10 01:58 am Oct 9 10:58 pm
701.00 10/10/2017 04:58:40 Oct 10 12:58 am Oct 9 9:58 pm
1904.00 10/10/2017 03:58:56 Oct 9 11:58 pm Oct 9 8:58 pm
766.00 10/10/2017 02:59:12 Oct 9 10:59 pm Oct 9 7:59 pm
812.00 10/10/2017 01:59:28 Oct 9 09:59 pm Oct 9 6:59 pm
859.00 10/10/2017 00:59:44 Oct 9 08:59 pm Oct 9 5:59 pm
918.00 10/10/2017 00:00:00 Oct 9 08:00 pm Oct 9 5:00 pm
991.00 10/09/2017 22:58:08 Oct 9 06:58 pm Oct 9 3:58 pm
1076.00 10/09/2017 21:58:24 Oct 9 05:58 pm Oct 9 2:58 pm
1149.00 10/09/2017 20:58:40 Oct 9 04:58 pm Oct 9 1:58 pm
1259.00 10/09/2017 19:58:56 Oct 9 03:58 pm Oct 9 12:58 pm
1399.00 10/09/2017 18:59:12 Oct 9 02:59 pm Oct 9 11:59 am
1532.00 10/09/2017 17:59:28 Oct 9 01:59 pm Oct 9 10:59 am
1723.00 10/09/2017 16:59:44 Oct 9 12:59 pm Oct 9 9:59 am
2156.00 10/09/2017 14:58:08 Oct 9 10:58 am Oct 9 7:58 am
2745.00 10/09/2017 12:58:40 Oct 9 08:58 am Oct 9 5:58 am
3110.00 10/09/2017 11:58:56 Oct 9 07:58 am Oct 9 4:58 am
3432.00 10/09/2017 10:59:12 Oct 9 06:59 am Oct 9 3:59 am
3745.00 10/09/2017 09:59:28 Oct 9 05:59 am Oct 9 2:59 am
3640.00 10/09/2017 08:59:44 Oct 9 04:59 am Oct 9 1:59 am
3110.00 10/09/2017 08:00:00 Oct 9 04:00 am Oct 9 1:00 am
2274.00 10/09/2017 06:58:08 Oct 9 02:58 am Oct 8 11:58 pm
2127.00 10/09/2017 05:58:24 Oct 9 01:58 am Oct 8 10:58 pm
2367.00 10/09/2017 04:58:40 Oct 9 12:58 am Oct 8 9:58 pm
92.00 10/09/2017 03:58:56 Oct 8 11:58 pm Oct 8 8:58 pm
137.00 10/09/2017 02:59:12 Oct 8 10:59 pm Oct 8 7:59 pm
137.00 10/09/2017 01:59:28 Oct 8 09:59 pm Oct 8 6:59 pm
132.00 10/09/2017 00:59:44 Oct 8 08:59 pm Oct 8 5:59 pm
120.00 10/09/2017 00:00:00 Oct 8 08:00 pm Oct 8 5:00 pm
126.00 10/08/2017 22:58:08 Oct 8 06:58 pm Oct 8 3:58 pm
137.00 10/08/2017 21:58:24 Oct 8 05:58 pm Oct 8 2:58 pm
137.00 10/08/2017 20:58:40 Oct 8 04:58 pm Oct 8 1:58 pm
109.00 10/08/2017 19:58:56 Oct 8 03:58 pm Oct 8 12:58 pm
101.00 10/08/2017 18:59:12 Oct 8 02:59 pm Oct 8 11:59 am
101.00 10/08/2017 17:59:28 Oct 8 01:59 pm Oct 8 10:59 am
104.00 10/08/2017 16:59:44 Oct 8 12:59 pm Oct 8 9:59 am
88.00 10/08/2017 14:58:08 Oct 8 10:58 am Oct 8 7:58 am
88.00 10/08/2017 13:58:24 Oct 8 09:58 am Oct 8 6:58 am
88.00 10/08/2017 12:58:40 Oct 8 08:58 am Oct 8 5:58 am
88.00 10/08/2017 11:58:56 Oct 8 07:58 am Oct 8 4:58 am
88.00 10/08/2017 10:59:12 Oct 8 06:59 am Oct 8 3:59 am
88.00 10/08/2017 09:59:28 Oct 8 05:59 am Oct 8 2:59 am
85.00 10/08/2017 08:59:44 Oct 8 04:59 am Oct 8 1:59 am
85.00 10/08/2017 08:00:00 Oct 8 04:00 am Oct 8 1:00 am
85.00 10/08/2017 06:58:08 Oct 8 02:58 am Oct 7 11:58 pm
85.00 10/08/2017 05:58:24 Oct 8 01:58 am Oct 7 10:58 pm
81.00 10/08/2017 04:58:40 Oct 8 12:58 am Oct 7 9:58 pm
79.00 10/08/2017 03:58:56 Oct 7 11:58 pm Oct 7 8:58 pm
75.00 10/08/2017 02:59:12 Oct 7 10:59 pm Oct 7 7:59 pm
75.00 10/08/2017 01:59:28 Oct 7 09:59 pm Oct 7 6:59 pm
75.00 10/08/2017 00:59:44 Oct 7 08:59 pm Oct 7 5:59 pm
75.00 10/08/2017 00:00:00 Oct 7 08:00 pm Oct 7 5:00 pm
75.00 10/07/2017 22:58:08 Oct 7 06:58 pm Oct 7 3:58 pm
75.00 10/07/2017 21:58:24 Oct 7 05:58 pm Oct 7 2:58 pm
75.00 10/07/2017 20:58:40 Oct 7 04:58 pm Oct 7 1:58 pm
75.00 10/07/2017 19:58:56 Oct 7 03:58 pm Oct 7 12:58 pm
75.00 10/07/2017 18:59:12 Oct 7 02:59 pm Oct 7 11:59 am
75.00 10/07/2017 17:59:28 Oct 7 01:59 pm Oct 7 10:59 am
77.00 10/07/2017 16:59:44 Oct 7 12:59 pm Oct 7 9:59 am
83.00 10/07/2017 14:58:08 Oct 7 10:58 am Oct 7 7:58 am
85.00 10/07/2017 13:58:24 Oct 7 09:58 am Oct 7 6:58 am
85.00 10/07/2017 12:58:40 Oct 7 08:58 am Oct 7 5:58 am
85.00 10/07/2017 11:58:56 Oct 7 07:58 am Oct 7 4:58 am
85.00 10/07/2017 10:59:12 Oct 7 06:59 am Oct 7 3:59 am
85.00 10/07/2017 09:59:28 Oct 7 05:59 am Oct 7 2:59 am
85.00 10/07/2017 08:59:44 Oct 7 04:59 am Oct 7 1:59 am
85.00 10/07/2017 08:00:00 Oct 7 04:00 am Oct 7 1:00 am
85.00 10/07/2017 06:58:08 Oct 7 02:58 am Oct 6 11:58 pm
85.00 10/07/2017 05:58:24 Oct 7 01:58 am Oct 6 10:58 pm
85.00 10/07/2017 04:58:40 Oct 7 12:58 am Oct 6 9:58 pm
73.00 10/07/2017 03:58:56 Oct 6 11:58 pm Oct 6 8:58 pm
88.00 10/07/2017 02:59:12 Oct 6 10:59 pm Oct 6 7:59 pm
88.00 10/07/2017 01:59:28 Oct 6 09:59 pm Oct 6 6:59 pm
90.00 10/07/2017 00:59:44 Oct 6 08:59 pm Oct 6 5:59 pm
92.00 10/07/2017 00:00:00 Oct 6 08:00 pm Oct 6 5:00 pm
90.00 10/06/2017 22:58:08 Oct 6 06:58 pm Oct 6 3:58 pm
79.00 10/06/2017 21:58:24 Oct 6 05:58 pm Oct 6 2:58 pm
73.00 10/06/2017 20:58:40 Oct 6 04:58 pm Oct 6 1:58 pm
73.00 10/06/2017 19:58:56 Oct 6 03:58 pm Oct 6 12:58 pm
73.00 10/06/2017 18:59:12 Oct 6 02:59 pm Oct 6 11:59 am
73.00 10/06/2017 17:59:28 Oct 6 01:59 pm Oct 6 10:59 am
73.00 10/06/2017 16:59:44 Oct 6 12:59 pm Oct 6 9:59 am
73.00 10/06/2017 14:58:08 Oct 6 10:58 am Oct 6 7:58 am
73.00 10/06/2017 13:58:24 Oct 6 09:58 am Oct 6 6:58 am
73.00 10/06/2017 12:58:40 Oct 6 08:58 am Oct 6 5:58 am
73.00 10/06/2017 11:58:56 Oct 6 07:58 am Oct 6 4:58 am
75.00 10/06/2017 10:59:12 Oct 6 06:59 am Oct 6 3:59 am
77.00 10/06/2017 09:59:28 Oct 6 05:59 am Oct 6 2:59 am
81.00 10/06/2017 08:59:44 Oct 6 04:59 am Oct 6 1:59 am
83.00 10/06/2017 08:00:00 Oct 6 04:00 am Oct 6 1:00 am
85.00 10/06/2017 06:58:08 Oct 6 02:58 am Oct 5 11:58 pm
85.00 10/06/2017 05:58:24 Oct 6 01:58 am Oct 5 10:58 pm
85.00 10/06/2017 04:58:40 Oct 6 12:58 am Oct 5 9:58 pm
73.00 10/06/2017 03:58:56 Oct 5 11:58 pm Oct 5 8:58 pm
85.00 10/06/2017 02:59:12 Oct 5 10:59 pm Oct 5 7:59 pm
85.00 10/06/2017 01:59:28 Oct 5 09:59 pm Oct 5 6:59 pm
85.00 10/06/2017 00:59:44 Oct 5 08:59 pm Oct 5 5:59 pm
85.00 10/06/2017 00:00:00 Oct 5 08:00 pm Oct 5 5:00 pm
85.00 10/05/2017 22:58:08 Oct 5 06:58 pm Oct 5 3:58 pm
83.00 10/05/2017 21:58:24 Oct 5 05:58 pm Oct 5 2:58 pm
81.00 10/05/2017 20:58:40 Oct 5 04:58 pm Oct 5 1:58 pm
81.00 10/05/2017 19:58:56 Oct 5 03:58 pm Oct 5 12:58 pm
81.00 10/05/2017 18:59:12 Oct 5 02:59 pm Oct 5 11:59 am
81.00 10/05/2017 17:59:28 Oct 5 01:59 pm Oct 5 10:59 am
77.00 10/05/2017 16:59:44 Oct 5 12:59 pm Oct 5 9:59 am
71.00 10/05/2017 14:58:08 Oct 5 10:58 am Oct 5 7:58 am
71.00 10/05/2017 13:58:24 Oct 5 09:58 am Oct 5 6:58 am
69.00 10/05/2017 12:58:40 Oct 5 08:58 am Oct 5 5:58 am
71.00 10/05/2017 11:58:56 Oct 5 07:58 am Oct 5 4:58 am
71.00 10/05/2017 10:59:12 Oct 5 06:59 am Oct 5 3:59 am
71.00 10/05/2017 09:59:28 Oct 5 05:59 am Oct 5 2:59 am
71.00 10/05/2017 08:59:44 Oct 5 04:59 am Oct 5 1:59 am
71.00 10/05/2017 08:00:00 Oct 5 04:00 am Oct 5 1:00 am
71.00 10/05/2017 06:58:08 Oct 5 02:58 am Oct 4 11:58 pm
71.00 10/05/2017 05:58:24 Oct 5 01:58 am Oct 4 10:58 pm
71.00 10/05/2017 04:58:40 Oct 5 12:58 am Oct 4 9:58 pm
90.00 10/05/2017 03:58:56 Oct 4 11:58 pm Oct 4 8:58 pm
79.00 10/05/2017 02:59:12 Oct 4 10:59 pm Oct 4 7:59 pm
81.00 10/05/2017 01:59:28 Oct 4 09:59 pm Oct 4 6:59 pm
83.00 10/05/2017 00:59:44 Oct 4 08:59 pm Oct 4 5:59 pm
83.00 10/05/2017 00:00:00 Oct 4 08:00 pm Oct 4 5:00 pm
83.00 10/04/2017 22:58:08 Oct 4 06:58 pm Oct 4 3:58 pm

Report - Reports of Related Gauges

Reports give the public a chance to report on river conditions throughout the country as well as log the history of a river.

Reports

No Reports Filed

Linked Reaches

Click a heading to sort. Hover over a heading for help.
River Name/Section Class Level running? Updated
Little Pigeon, Middle Prong [TN] 4. Highway 73 to Richardson Cove II-III 370 cfs
-1 cfs/hr
L4-
Below Recom.
-02h09m